Yosemite National Park, California, United States (95389)
Lat: 37.54N, Lon: 119.84W
Wx Zone: CAZ093
Local Info
Past Weather Observations for Sunday, July 20, 2014

NOTE: This archive is for the closest National Weather Service station to Yosemite National Park. Information may differ from the station used for current weather conditions.

Click here for Long-term Archive

Time Weather Temperature Dewpoint Humidity Pressure Winds Precip Visibility
23:53
Clear
70°F / 21°C 57°F / 14°C 64% 29.92 in
(1013 mb)
NW 9.2 mph
(NW 15 kph)
- 10SM
22:53
Clear
72°F / 22°C 57°F / 14°C 61% 29.92 in
(1013 mb)
NNW 10.4 mph
(NNW 17 kph)
- 10SM
21:53
Clear
73°F / 23°C 57°F / 14°C 57% 29.92 in
(1013 mb)
NW 12.7 mph
(NW 20 kph)
- 10SM
20:53
Clear
75°F / 24°C 57°F / 14°C 54% 29.89 in
(1012 mb)
NW 15 mph
(NW 24 kph)
- 10SM
19:53
Clear
77°F / 25°C 57°F / 14°C 51% 29.89 in
(1012 mb)
NW 11.5 mph
(NW 19 kph)
- 10SM
18:53
Clear
82°F / 28°C 55°F / 13°C 40% 29.83 in
(1010 mb)
NNW 18.4 mph
(NNW 30 kph)
- 10SM
17:53
Clear
86°F / 30°C 55°F / 13°C 35% 29.83 in
(1010 mb)
NW 20.7 mph
(NW 33 kph)
- 10SM
16:53
Clear
90°F / 32°C 57°F / 14°C 33% 29.83 in
(1010 mb)
NW 17.3 mph
(NW 28 kph)
- 10SM
15:53
Clear
90°F / 32°C 57°F / 14°C 33% 29.83 in
(1010 mb)
NNW 16.1 mph
(NNW 26 kph)
- 10SM
14:53
Clear
90°F / 32°C 55°F / 13°C 31% 29.86 in
(1011 mb)
NNW 18.4 mph
(NNW 30 kph)
- 10SM
13:53
Clear
91°F / 33°C 59°F / 15°C 34% 29.89 in
(1012 mb)
N 15 mph
(N 24 kph)
- 10SM
12:53
Clear
91°F / 33°C 57°F / 14°C 32% 29.89 in
(1012 mb)
NNW 8.1 mph
(NNW 13 kph)
- 10SM
11:53
Clear
91°F / 33°C 57°F / 14°C 32% 29.92 in
(1013 mb)
NW 8.1 mph
(NW 13 kph)
- 10SM
10:53
Clear
88°F / 31°C 57°F / 14°C 35% 29.92 in
(1013 mb)
Variable 6.9 mph
(Variable 11 kph)
- 10SM
09:53
Clear
84°F / 29°C 57°F / 14°C 40% 29.92 in
(1013 mb)
Calm - 10SM
08:53
Clear
81°F / 27°C 55°F / 13°C 42% 29.92 in
(1013 mb)
WNW 5.8 mph
(WNW 9 kph)
- 10SM
07:53
Clear
79°F / 26°C 55°F / 13°C 45% 29.92 in
(1013 mb)
W 6.9 mph
(W 11 kph)
- 10SM
06:53
Clear
75°F / 24°C 54°F / 12°C 47% 29.89 in
(1012 mb)
NW 6.9 mph
(NW 11 kph)
- 10SM
05:53
Clear
73°F / 23°C 54°F / 12°C 50% 29.89 in
(1012 mb)
NNW 5.8 mph
(NNW 9 kph)
- 10SM
04:53
Clear
72°F / 22°C 54°F / 12°C 53% 29.89 in
(1012 mb)
NW 4.6 mph
(NW 7 kph)
- 10SM
03:53
Clear
72°F / 22°C 52°F / 11°C 50% 29.86 in
(1011 mb)
NW 6.9 mph
(NW 11 kph)
- 10SM
02:53
Clear
73°F / 23°C 52°F / 11°C 47% 29.86 in
(1011 mb)
NW 8.1 mph
(NW 13 kph)
0.00 in
(0.00 mm)
10SM
01:53
Clear
75°F / 24°C 48°F / 9°C 39% 29.86 in
(1011 mb)
NW 5.8 mph
(NW 9 kph)
- 10SM
00:53
Partly Cloudy
77°F / 25°C 50°F / 10°C 39% 29.86 in
(1011 mb)
NW 9.2 mph
(NW 15 kph)
- 10SM
Time Weather Temperature Dewpoint Humidity Pressure Winds Precip Visibility


Weather for websites

WeatherForYou.com, LLC is not responsible for any damages or problems caused by this service. Current weather conditions are obtained from the closest station including government and personal stations which may have varying degrees of accuracy. Weather forecasts are derived from the NOAA NDFD. Like all things, this site belongs to Jesus Christ... He just trusts me to maintain it. If you have any questions or comments email webmaster@weatherforyou.com

Copyright © 2014, WeatherForYou.com LLC. All rights reserved.